Wind_Speed
44 44 44 44 44 45 45 45 45 45 46 46 45 44 44 44 45 44 43 44 45 46 45 45 44 43 42 42 42 42 41 40 39 37 35 34 33 33 31 30 29 30 29 28 26 26 25 25 24 25 26 27 28 29 30 31 33 35 36 37 38 39 39 39 39 37 36 36 37 38 40 42 44 44 44 45 45 45 46 46 47 47 48 50 52
45 44 44 44 45 45 45 46 46 46 48 48 47 46 44 44 44 44 44 45 45 45 45 44 44 43 43 43 43 42 40 39 38 36 34 34 34 32 31 30 30 30 29 28 26 26 26 25 25 26 27 28 28 29 30 32 34 36 37 38 39 40 40 40 40 39 38 37 38 39 41 42 44 44 43 44 44 45 45 45 46 47 48 50 53
44 45 44 44 45 45 46 46 47 47 48 49 49 47 46 44 44 44 45 45 45 45 45 44 44 43 43 43 43 41 39 37 36 35 34 34 33 32 31 30 30 30 29 28 27 26 26 25 26 27 28 28 29 30 31 33 35 36 37 39 39 40 41 41 41 40 39 39 39 40 41 42 43 43 43 43 44 45 45 45 46 47 48 50 52
44 44 44 44 44 45 46 46 47 47 48 49 48 47 46 45 45 45 45 45 45 44 44 44 44 44 43 43 42 40 37 35 35 34 34 34 33 32 31 31 31 31 29 28 27 26 26 26 27 28 29 29 30 31 33 34 36 37 38 39 40 40 41 42 42 42 41 40 40 41 42 43 43 42 42 43 43 44 44 45 46 47 48 49 50
44 44 44 43 43 43 44 44 44 44 45 46 47 46 46 45 45 45 45 45 44 44 44 44 44 44 43 42 41 39 37 35 35 34 34 34 33 32 32 32 32 30 29 28 27 26 27 28 28 29 30 30 31 32 34 35 37 38 38 39 39 41 42 43 43 42 41 40 40 41 42 42 42 42 42 43 43 43 44 44 45 47 48 48 49
45 44 44 43 42 41 41 40 39 40 41 43 45 45 45 45 44 45 45 44 44 43 44 44 44 44 43 42 41 39 38 36 36 35 34 33 33 32 32 32 31 30 29 28 27 28 28 29 30 30 31 31 32 34 36 36 37 38 38 38 39 41 43 43 43 42 40 39 40 41 41 42 42 42 42 42 43 44 44 45 45 46 48 48 49
44 44 43 42 41 40 38 37 36 37 39 41 43 44 44 44 44 44 44 44 44 43 43 43 44 43 43 43 42 40 39 38 37 36 34 33 32 32 32 32 31 30 29 29 29 29 30 30 31 31 32 33 34 36 37 37 38 38 38 38 39 41 43 43 43 40 38 38 39 40 40 41 41 41 42 42 42 43 45 46 46 46 47 48 49
40 40 41 41 40 40 39 38 38 38 39 41 42 43 43 44 44 44 44 44 43 43 43 43 43 43 42 43 42 40 39 38 36 35 33 32 32 32 32 32 31 30 30 30 30 31 31 32 32 32 33 35 36 37 38 38 39 38 38 38 39 41 43 43 41 38 37 37 38 39 39 39 40 41 41 41 41 42 44 46 47 47 47 47 49
32 34 35 36 37 39 39 40 40 40 41 42 43 43 44 44 44 44 43 43 43 42 42 42 42 42 41 41 41 38 36 35 34 33 32 31 31 32 32 31 31 31 31 32 32 32 32 33 33 34 35 37 38 38 39 39 39 39 38 39 39 41 42 41 39 36 36 37 37 38 38 39 39 40 40 41 42 43 44 46 47 47 47 47 48
26 27 29 30 32 33 35 36 38 39 40 41 41 41 42 42 42 42 42 42 41 40 40 41 41 40 37 36 36 35 32 32 32 31 31 31 31 32 32 32 32 33 33 33 34 34 34 34 35 36 37 38 39 40 40 40 40 39 39 40 40 41 40 39 37 35 35 36 36 37 38 38 39 39 40 40 41 43 44 46 46 46 47 47 47
22 23 24 25 26 27 28 30 31 33 34 36 37 37 37 37 37 37 38 38 39 38 38 38 38 37 34 32 32 31 30 30 30 30 31 31 32 33 33 33 34 34 34 35 35 35 35 35 36 37 39 39 40 41 41 41 40 40 41 41 40 40 39 37 35 34 34 35 35 37 38 38 38 39 39 40 41 43 44 46 47 47 48 49 49
20 21 21 22 22 23 24 25 26 27 29 30 32 32 32 33 32 32 33 33 34 35 35 34 34 33 32 30 28 27 27 28 29 29 30 31 32 33 34 34 34 35 36 36 36 36 36 36 38 39 40 41 41 42 42 41 41 41 41 41 40 38 37 35 33 33 33 34 34 36 37 38 38 38 39 40 41 43 44 46 47 47 48 48 49
20 20 20 20 21 21 21 22 22 23 25 26 27 28 28 29 28 28 28 29 30 31 31 30 29 29 28 25 24 24 26 27 28 29 31 32 33 34 35 35 36 37 38 38 37 37 37 38 39 40 41 42 42 42 42 42 42 41 41 40 38 36 35 33 32 32 33 33 34 35 36 37 37 38 39 39 41 43 45 46 47 47 47 48 49
19 19 19 19 19 20 20 20 20 20 21 23 24 24 25 24 24 24 24 25 25 26 25 24 24 23 22 22 22 23 25 27 28 30 31 33 34 35 36 37 38 39 39 38 38 37 38 39 40 41 42 43 43 43 43 43 42 41 40 39 37 35 34 33 32 32 32 33 34 35 36 37 37 38 38 39 41 43 45 46 47 47 47 47 48
18 19 19 19 19 18 18 18 18 18 19 19 20 21 21 20 20 20 20 20 20 20 20 19 19 19 20 20 22 23 25 27 29 31 33 35 36 37 38 38 39 40 39 38 38 39 40 41 41 42 43 43 44 44 43 43 42 40 39 37 36 34 33 32 31 31 31 33 34 35 36 36 37 38 38 39 41 43 44 46 46 46 46 46 47
18 19 19 18 18 17 17 17 16 16 17 18 18 18 18 17 17 16 16 16 17 17 17 18 18 19 20 21 22 24 27 29 31 33 35 36 37 38 39 40 40 39 39 39 40 40 41 42 43 43 43 44 44 44 43 42 41 39 38 37 35 33 32 31 31 30 31 32 33 34 35 36 37 38 39 40 41 43 44 45 45 46 46 46 46
19 20 20 19 18 17 16 16 16 16 16 17 18 17 17 17 16 16 16 16 17 17 18 18 19 20 21 23 25 27 29 31 33 35 36 37 38 39 39 39 39 40 40 41 41 42 43 43 44 44 44 44 44 44 43 41 39 38 37 36 34 32 30 30 29 29 31 32 33 33 35 36 37 38 39 40 41 43 45 45 45 45 46 46 46
21 22 21 20 18 17 16 15 14 14 15 16 18 18 18 18 17 17 18 18 19 19 20 21 22 23 24 26 28 30 32 34 35 36 37 38 39 39 40 40 41 41 42 42 43 43 44 44 44 44 44 45 44 44 42 39 38 37 36 34 32 30 29 28 28 29 31 31 32 33 34 36 37 38 40 41 42 43 45 45 45 45 45 46 46
23 23 21 19 18 17 15 14 14 13 14 15 17 18 20 20 20 21 21 22 22 22 23 24 25 26 27 29 30 32 33 35 36 37 38 39 39 41 42 42 43 43 43 44 44 45 45 44 44 44 45 45 45 43 41 39 38 37 35 32 30 29 27 27 28 30 31 31 31 32 34 36 37 38 40 41 42 43 44 45 45 44 45 45 46
24 22 20 19 18 18 18 18 18 18 19 20 20 21 23 24 24 25 25 25 25 25 26 26 27 28 29 30 32 34 35 36 37 38 39 40 41 42 43 43 44 44 44 45 45 45 45 44 45 45 46 46 44 42 41 39 38 37 34 31 29 28 26 26 28 30 31 31 31 32 34 36 37 38 39 40 41 43 44 44 43 43 44 44 45
24 22 21 20 21 22 23 24 24 25 25 25 25 25 25 26 27 27 28 28 28 28 28 29 30 31 32 34 35 36 37 37 38 39 40 41 42 43 44 44 45 45 45 45 45 45 45 45 45 46 46 45 44 43 41 39 38 36 33 30 29 27 26 26 28 30 31 31 31 32 34 36 37 38 39 40 41 42 43 43 43 42 43 44 45
25 24 23 23 23 24 25 26 26 27 27 27 27 27 27 28 28 29 29 29 30 31 32 33 34 35 37 38 38 38 38 39 39 40 41 43 43 44 45 45 45 45 46 46 45 45 45 45 46 47 46 45 44 43 41 40 38 35 31 30 28 26 25 26 28 30 31 32 32 33 34 35 37 38 40 41 41 42 43 43 42 42 42 43 44
27 26 26 26 25 26 27 28 28 29 29 29 30 30 30 31 31 32 32 33 35 36 36 37 38 39 39 39 39 38 38 39 40 41 41 42 43 44 44 45 45 45 46 45 45 45 46 46 47 47 46 45 45 43 41 39 37 33 31 29 27 26 25 26 28 30 31 32 33 34 35 36 38 39 41 42 42 42 42 43 42 42 41 42 43
28 28 28 28 28 28 29 30 30 31 32 32 33 33 33 34 35 36 36 38 38 39 38 38 39 39 38 38 38 37 37 38 39 40 41 41 42 43 43 44 45 45 45 45 45 46 46 46 47 47 46 46 45 43 41 39 36 33 31 30 28 26 26 27 29 30 31 33 34 35 36 37 38 40 41 42 42 42 43 43 42 41 40 40 42
29 30 30 29 29 29 29 30 30 30 31 32 33 34 35 36 37 37 38 38 39 38 38 38 39 39 38 38 38 37 38 38 38 38 39 39 41 42 42 43 44 45 45 45 45 46 46 47 48 47 47 46 44 42 41 39 36 33 31 30 28 27 28 29 30 31 32 34 35 37 38 38 39 40 42 42 43 43 43 43 42 40 40 40 40
27 27 26 27 27 27 28 28 29 29 29 29 29 30 32 33 34 35 36 36 36 37 38 38 39 39 40 39 39 39 38 37 37 37 38 39 40 41 42 43 44 45 45 46 46 46 48 48 48 48 48 46 44 42 41 39 36 33 31 29 28 29 30 31 32 33 35 36 37 38 39 40 40 41 42 42 43 43 42 43 42 41 40 40 40
23 23 23 23 23 24 25 26 27 27 28 28 29 29 30 31 32 32 32 33 34 35 36 37 38 38 39 39 39 38 37 37 36 36 36 38 39 40 41 43 44 45 45 45 45 47 48 48 49 50 48 45 43 41 40 38 36 33 30 29 29 31 32 32 34 36 38 39 39 40 41 41 41 41 42 43 43 43 43 43 42 41 40 40 40
22 22 22 22 22 23 23 24 25 25 26 28 29 30 31 32 33 33 33 34 35 35 36 36 37 37 37 38 38 37 37 36 34 33 34 36 37 39 41 42 43 43 44 44 45 47 48 49 50 50 47 44 42 40 38 37 37 35 31 30 31 32 33 34 36 38 40 41 41 42 42 42 41 41 42 42 42 42 43 43 42 41 40 39 39
23 23 23 24 24 24 25 25 26 26 27 28 29 30 31 32 33 34 34 35 36 37 37 37 37 37 37 38 38 38 37 34 30 29 32 34 36 38 40 41 42 42 42 44 46 49 50 51 51 48 45 43 40 37 36 37 38 37 36 34 33 34 34 36 37 40 41 43 43 43 43 42 41 41 41 41 41 42 43 43 42 41 40 39 38
25 25 26 26 26 26 26 26 27 27 28 29 29 30 31 32 33 33 34 35 35 36 36 36 35 36 36 37 38 39 38 35 33 33 35 36 37 39 41 42 43 44 45 47 50 51 52 52 49 46 43 41 37 35 36 38 38 40 40 39 37 37 36 37 39 41 43 44 45 46 45 43 41 41 41 41 40 41 42 42 41 41 39 38 37
26 27 27 26 26 26 26 26 27 27 27 28 28 29 30 31 31 32 32 33 34 34 35 34 34 35 35 36 36 37 38 38 37 39 41 41 43 44 45 46 47 48 49 51 52 52 52 50 47 43 40 38 36 35 37 39 41 42 42 42 41 41 40 40 42 44 45 46 47 47 47 44 42 41 41 40 40 40 42 42 41 40 39 38 37
27 27 27 26 26 26 27 27 27 27 27 28 28 28 28 29 29 30 30 31 32 33 33 33 33 34 34 35 35 35 36 37 38 40 42 44 46 47 48 49 51 51 53 53 53 52 50 47 43 40 38 36 36 36 37 39 43 44 45 45 45 44 44 44 45 46 49 49 48 49 49 46 42 42 42 40 39 40 41 41 40 40 38 37 37
27 28 28 28 28 29 29 29 29 29 29 29 29 29 29 28 28 28 28 29 30 31 31 32 32 33 33 33 34 34 34 36 38 40 42 44 46 48 49 51 52 53 53 53 51 50 47 43 40 39 37 37 38 38 39 41 44 46 47 48 48 48 47 47 47 49 51 51 50 50 49 45 43 43 43 41 39 39 41 40 40 39 38 36 36
29 30 30 30 31 31 31 32 31 31 31 31 31 31 30 29 28 27 27 28 28 29 30 30 31 31 32 32 32 32 33 36 38 39 42 44 47 49 50 51 52 52 52 52 51 48 44 41 40 39 38 39 40 42 43 45 47 49 50 50 51 51 50 50 51 53 53 52 51 51 48 45 44 45 45 42 39 38 40 40 39 39 37 36 35
32 32 32 33 33 33 34 34 34 34 33 33 32 32 32 31 29 28 27 27 27 28 28 28 29 29 30 30 30 30 32 35 37 39 42 44 46 48 51 52 52 52 52 52 50 47 43 41 41 40 40 42 44 45 47 48 50 51 52 52 52 53 52 53 54 54 54 53 52 49 47 46 47 47 45 43 40 38 39 40 39 38 37 36 35
34 34 35 35 35 35 36 36 36 37 36 35 34 33 33 32 31 30 30 29 29 29 29 29 28 29 29 29 29 31 33 35 37 39 42 44 46 49 51 52 51 51 52 51 49 46 44 44 43 43 43 45 47 47 49 51 52 53 53 53 54 54 54 55 55 54 53 52 50 49 48 49 48 46 44 43 41 38 39 39 38 38 37 35 35
37 37 37 37 38 38 38 38 39 38 38 37 35 34 33 33 32 32 32 32 32 32 31 31 30 30 30 30 30 32 34 36 37 40 42 44 47 49 50 50 50 51 51 51 49 47 46 45 45 45 46 48 49 50 51 53 53 54 54 55 55 56 56 55 54 53 52 51 50 50 50 50 48 45 44 43 41 39 38 38 37 37 37 36 35
39 39 40 39 40 40 40 41 40 39 38 37 36 35 34 34 34 34 35 35 35 35 34 33 33 33 33 32 33 34 36 37 39 41 42 44 46 48 49 49 50 51 51 50 49 49 48 47 47 47 49 50 52 53 54 54 54 55 56 56 56 56 55 54 52 52 52 53 52 52 51 49 47 44 43 43 41 39 38 37 37 37 36 36 35
41 41 41 41 41 41 41 41 40 40 38 37 36 36 36 36 36 37 38 38 37 36 35 35 35 35 35 35 35 36 38 39 40 42 42 44 46 47 48 50 51 52 52 51 51 51 51 51 50 51 52 53 54 55 56 55 56 56 57 56 56 55 54 53 53 54 55 54 53 52 50 47 45 44 43 42 41 39 37 37 37 36 36 36 35
42 42 42 42 42 41 41 40 39 39 38 37 37 37 38 40 40 40 40 38 37 36 36 37 37 37 37 37 38 38 39 41 42 42 43 44 45 46 48 49 50 51 52 52 53 54 54 53 53 54 54 54 55 56 57 57 57 58 57 57 56 56 56 56 56 55 55 54 52 50 48 46 44 43 42 42 41 39 38 37 37 36 35 35 35
42 42 43 43 42 41 40 40 40 40 39 39 39 39 40 41 41 40 39 38 38 38 38 39 39 39 39 40 40 40 41 42 43 43 44 45 45 45 46 47 48 49 50 51 52 53 53 54 54 55 55 55 56 57 58 59 59 59 59 58 58 58 57 56 55 54 53 52 50 47 46 44 43 42 42 41 40 39 38 38 37 36 36 36 35
42 43 42 41 41 41 41 42 43 43 42 42 41 41 40 40 39 39 39 39 39 39 39 39 40 40 40 40 41 42 42 43 43 43 44 44 45 45 46 46 47 48 48 49 50 51 52 53 54 54 55 56 57 58 59 59 59 60 59 59 58 57 56 55 54 52 51 49 47 45 44 43 42 41 41 41 40 39 39 38 37 36 36 36 35
43 43 42 41 41 42 43 43 43 42 42 42 42 42 42 42 41 41 41 41 40 40 40 40 41 41 40 40 41 41 42 42 42 43 43 43 44 45 45 46 46 47 47 48 49 50 51 52 53 53 54 55 57 58 59 59 58 58 58 57 56 55 53 52 50 49 48 46 45 44 43 42 41 41 41 41 41 40 40 39 37 36 36 36 35
43 42 42 42 43 43 43 43 43 42 42 42 42 42 43 42 42 42 41 41 41 41 41 40 40 40 40 40 40 40 40 40 41 41 42 43 43 44 45 46 46 47 47 48 49 50 51 52 52 52 53 54 55 56 56 55 54 54 54 53 52 51 50 49 48 47 47 47 45 43 42 41 41 41 41 42 42 41 40 38 37 36 36 36 35
43 43 44 44 44 43 43 44 44 43 43 42 42 42 41 41 41 41 40 40 40 40 40 40 40 40 39 39 39 39 39 39 39 40 40 41 42 43 44 44 45 46 47 48 48 49 50 51 50 51 51 51 52 53 54 53 52 52 52 51 51 50 49 48 48 48 47 47 45 43 42 42 42 41 41 42 42 42 40 38 37 37 37 36 35
44 44 44 44 44 43 44 44 43 42 41 41 41 41 40 40 40 40 40 40 40 40 39 39 39 39 39 39 38 38 39 39 39 40 40 41 41 42 42 43 44 45 46 47 48 48 49 50 50 50 51 51 52 53 53 53 52 52 51 51 50 50 49 48 48 48 47 46 44 43 43 43 42 41 41 42 42 41 40 38 37 37 37 36 34
44 44 44 43 43 43 43 42 42 41 41 41 40 40 40 40 40 39 39 39 39 39 39 39 39 39 39 39 39 39 40 40 40 41 41 42 42 42 43 44 45 46 47 48 49 50 50 51 51 52 52 53 53 53 53 53 52 51 51 50 49 48 48 47 47 47 46 46 45 44 43 42 41 41 41 42 41 41 40 38 37 37 37 35 34
45 45 44 44 43 42 42 42 41 41 40 40 40 40 39 39 39 39 39 39 39 39 39 39 39 39 40 40 40 41 41 41 42 43 44 44 45 45 46 47 48 49 50 50 51 51 51 52 52 52 52 53 53 53 52 51 50 49 49 48 47 47 47 47 46 46 46 45 44 43 43 42 41 41 41 41 41 40 40 39 37 37 36 35 34
44 43 43 43 42 41 40 40 40 39 39 39 39 39 39 39 39 39 40 39 39 40 40 40 40 41 41 41 42 43 43 44 45 46 46 48 48 49 50 50 50 51 52 52 52 52 52 52 52 52 52 52 52 52 51 50 49 48 47 47 47 47 46 46 45 45 45 44 43 43 42 41 41 41 41 40 40 40 39 38 38 37 36 35 34
41 41 41 40 39 39 39 38 38 39 39 39 40 40 40 41 41 41 41 41 41 41 41 42 42 43 43 44 45 45 46 47 48 48 49 50 51 51 52 52 52 52 53 53 53 53 53 52 52 52 52 52 52 52 51 51 50 49 48 47 47 48 47 46 45 44 43 43 43 42 42 41 41 41 40 40 39 39 39 38 38 37 36 35 34
39 39 39 38 38 38 38 38 39 39 40 41 41 41 42 42 42 42 42 43 43 43 44 44 45 46 46 47 48 49 49 50 51 51 52 52 53 53 53 53 53 53 53 53 53 53 53 53 53 53 53 54 53 53 52 52 51 50 49 48 48 48 48 46 45 43 43 43 43 42 42 41 41 40 40 39 39 39 38 38 37 37 35 34 34
Wind_Direction
254 256 259 261 263 263 264 264 265 265 265 264 264 264 264 264 265 265 265 265 265 265 266 265 265 265 264 263 262 262 263 263 262 262 261 261 261 262 262 258 251 249 250 254 258 263 267 270 274 279 284 289 294 297 301 305 308 310 312 313 314 315 316 317 317 316 315 316 318 319 320 321 321 322 323 323 324 324 324 325 326 328 330 330 330
252 254 256 259 261 262 263 263 264 264 264 263 263 264 264 265 265 265 265 264 265 265 265 265 265 264 264 263 263 262 262 262 262 260 259 259 260 260 258 253 248 248 250 254 258 263 267 271 274 279 284 288 292 296 301 305 307 309 311 312 313 314 316 317 316 315 315 315 317 318 319 320 321 322 323 323 324 324 325 326 327 329 331 332 331
252 253 254 257 259 260 260 261 262 262 262 262 262 263 264 265 265 264 264 264 264 264 264 264 265 264 264 263 263 263 262 261 259 258 257 258 258 257 254 248 245 247 250 254 259 264 268 271 275 279 283 287 291 296 300 304 306 308 309 310 312 314 315 316 317 316 314 314 316 318 319 320 321 322 322 323 324 325 325 327 329 330 332 333 332
253 254 255 256 257 258 258 258 260 261 261 260 260 262 264 265 265 264 264 264 263 263 263 264 264 264 264 264 264 264 263 260 257 257 257 257 256 254 249 244 244 247 250 254 260 265 268 272 275 279 282 285 290 295 299 302 304 306 307 309 312 313 315 316 317 316 313 313 315 317 319 321 321 321 322 323 324 325 326 328 329 330 332 332 332
256 257 258 259 260 260 259 258 259 260 260 259 260 263 265 266 266 265 265 264 264 264 264 264 264 264 264 264 264 264 262 259 258 258 257 256 254 250 245 242 244 247 251 256 262 266 269 272 275 278 281 285 290 294 298 300 303 304 306 308 311 313 315 316 316 315 313 312 314 317 320 320 320 321 322 324 324 325 327 328 330 331 332 332 332
259 260 262 263 263 263 261 259 259 259 259 259 261 263 265 266 266 266 266 266 265 265 264 264 264 264 264 264 263 263 262 261 259 257 255 253 250 246 242 242 244 248 252 258 263 267 269 272 275 277 280 285 289 293 296 299 301 302 304 307 310 313 315 315 314 313 311 312 315 318 319 320 320 321 322 324 325 326 328 329 330 331 332 332 332
260 261 263 263 263 263 263 261 260 259 259 260 261 263 264 265 265 265 265 265 265 264 264 264 264 264 264 264 263 262 262 261 258 255 252 249 245 242 240 242 246 249 254 260 264 267 270 272 275 278 281 285 288 291 295 297 299 300 303 306 309 312 313 313 312 311 310 312 315 318 319 319 320 321 323 324 325 327 327 329 331 332 332 333 334
259 260 260 261 261 261 262 262 261 260 260 260 261 262 263 264 264 264 265 265 264 264 263 263 263 263 263 264 263 262 260 257 254 251 248 245 241 239 240 244 247 252 256 261 264 268 270 273 276 279 282 284 287 290 293 295 297 299 302 304 307 310 311 311 310 309 310 313 316 317 318 319 319 321 322 324 325 326 328 329 331 332 333 334 334
260 261 261 261 261 261 261 262 262 262 261 262 262 263 264 264 264 264 264 264 263 263 262 262 263 263 263 262 263 260 256 252 249 246 243 240 237 239 242 245 249 254 258 262 265 268 271 274 277 279 282 284 286 289 292 293 296 299 300 302 305 308 309 309 307 308 311 314 316 317 317 318 319 321 322 324 326 328 329 330 330 331 332 333 334
262 264 265 265 265 265 264 264 264 264 264 264 264 263 264 264 264 264 263 263 262 261 261 261 262 263 262 261 260 256 251 246 243 239 236 235 236 239 243 247 251 255 259 263 266 269 272 275 277 279 282 284 286 289 290 293 295 298 299 300 303 306 307 306 306 308 312 315 316 316 317 318 320 321 323 325 327 328 329 328 329 330 330 330 333
263 264 266 267 268 268 268 267 267 266 265 265 265 264 264 263 263 263 262 262 261 260 259 259 260 262 263 261 256 251 245 241 237 234 233 233 236 240 244 249 253 257 261 264 267 270 273 275 278 280 282 284 286 288 290 292 295 297 298 299 301 304 305 305 306 309 314 315 315 316 317 319 320 321 323 325 327 328 328 327 328 328 328 329 332
267 268 269 270 270 269 270 269 269 268 267 266 265 264 263 262 261 261 260 259 259 258 258 257 257 258 259 256 251 245 238 234 231 231 233 235 239 243 248 252 256 259 262 265 267 270 273 276 278 280 282 284 286 287 290 292 295 295 296 298 300 302 303 304 307 311 315 315 314 315 317 318 320 321 323 325 326 327 327 327 327 327 328 329 332
273 275 274 275 274 273 273 272 271 272 271 269 268 266 264 263 261 260 258 256 255 255 256 256 253 251 250 247 243 236 230 228 229 231 234 238 242 247 250 254 258 260 263 265 267 270 273 276 278 280 282 283 285 288 290 292 293 294 295 297 299 300 301 304 308 313 315 314 313 314 316 318 320 321 322 324 326 327 327 326 327 327 327 329 332
279 280 279 279 278 277 276 274 272 273 273 272 271 268 266 265 262 260 258 256 256 256 255 254 249 244 241 237 234 230 228 229 231 234 237 241 245 249 253 256 259 261 263 265 268 272 274 277 278 280 281 283 285 288 289 291 292 293 295 297 298 299 301 305 310 314 314 313 312 314 316 318 319 320 321 323 324 325 326 326 327 327 328 330 333
285 285 282 282 281 280 280 276 272 272 272 271 270 268 266 264 261 260 258 256 254 253 250 246 242 238 235 232 231 231 232 233 236 239 242 245 249 252 255 257 260 262 264 267 270 273 275 276 278 279 281 283 285 287 288 290 291 293 296 298 297 299 303 307 312 314 312 311 311 314 315 317 318 318 319 321 322 323 324 325 326 327 328 330 333
286 289 287 285 283 282 283 281 277 274 270 267 265 263 261 258 255 254 253 250 247 246 243 240 238 235 234 234 234 236 237 239 241 243 246 249 252 254 256 258 261 263 267 269 271 273 274 276 277 279 281 283 285 286 287 289 291 294 297 297 297 299 304 309 312 312 310 309 310 313 315 317 317 317 317 318 319 321 323 324 325 327 328 330 332
283 286 286 284 283 283 285 285 282 279 273 267 261 256 252 250 247 246 246 245 244 244 242 240 239 239 239 239 239 240 241 243 244 246 249 251 254 256 258 260 263 266 268 270 271 273 274 275 277 279 281 283 284 285 286 288 292 296 298 296 296 300 306 309 312 310 308 307 308 311 315 316 317 316 316 316 318 320 322 323 324 326 328 329 331
279 278 277 278 279 282 284 285 283 280 276 270 263 257 252 247 242 240 240 240 241 241 240 240 240 242 243 243 242 242 243 245 247 249 252 254 256 258 260 263 265 267 268 269 271 272 273 275 277 279 281 283 283 284 285 288 293 297 296 295 297 302 306 309 310 308 306 305 306 310 315 316 316 316 315 316 317 320 321 323 324 325 327 328 330
272 270 271 274 276 279 281 283 284 283 278 273 268 263 259 254 250 247 244 242 240 240 241 242 243 244 245 245 246 247 248 250 251 253 255 257 259 261 262 264 266 267 268 269 270 271 273 276 278 280 281 281 281 283 285 289 294 296 294 293 297 302 306 308 307 306 304 304 305 309 313 315 316 316 316 317 318 319 321 322 323 325 326 327 329
265 265 266 269 271 274 277 279 280 279 277 273 269 265 262 258 256 253 250 247 244 243 244 246 247 248 249 250 251 252 253 255 256 257 259 260 261 262 264 265 266 266 267 268 270 271 274 276 278 279 279 279 280 282 284 290 295 294 291 293 298 302 306 307 306 305 304 303 304 307 310 314 315 316 317 317 317 319 320 322 322 323 324 326 328
259 260 261 263 264 266 269 271 273 273 272 271 269 266 264 261 259 257 256 253 250 249 249 250 251 252 253 253 254 255 255 257 258 259 260 261 262 263 264 264 265 265 266 268 270 272 275 276 277 278 277 277 278 280 285 292 295 291 288 293 298 302 306 308 307 306 305 303 302 303 308 312 314 316 317 317 317 318 320 321 321 322 323 325 327
257 258 261 263 264 264 265 267 268 269 269 269 268 267 266 264 263 262 261 260 259 258 256 255 254 253 253 253 254 255 257 258 259 260 261 261 262 262 263 263 264 265 267 269 272 274 275 276 276 275 274 275 277 280 287 294 293 287 288 294 300 304 308 309 309 309 307 304 301 301 305 310 313 315 317 317 317 318 319 320 320 320 323 325 327
260 263 266 268 268 268 266 266 267 267 267 268 267 266 266 265 265 264 264 263 262 260 257 255 253 252 253 254 255 257 258 259 260 260 261 261 262 262 263 264 265 266 268 270 272 274 275 274 273 272 272 273 277 283 290 293 288 284 288 295 300 305 308 309 310 311 310 308 304 302 303 307 311 314 316 317 317 318 318 318 319 320 322 325 327
266 268 270 271 271 270 269 267 267 266 265 265 265 264 264 263 262 261 260 259 258 256 254 254 254 255 256 257 258 259 260 260 260 260 261 261 262 263 264 265 266 267 269 271 272 273 273 272 270 269 270 274 279 286 292 291 284 282 288 294 299 304 306 306 309 311 311 310 307 304 303 305 309 313 315 316 316 316 317 317 317 319 321 323 325
270 270 270 269 268 266 265 264 264 263 263 263 263 263 262 261 260 259 258 258 257 257 257 258 259 259 260 261 261 261 261 261 261 261 261 262 262 263 264 265 266 267 269 270 271 271 270 268 267 268 271 276 282 288 291 288 280 281 289 294 298 302 303 302 305 308 310 310 309 307 305 305 307 311 313 314 314 314 315 316 315 316 319 321 324
270 269 268 267 266 264 263 262 261 261 261 261 262 263 263 263 264 264 264 264 264 265 265 265 265 265 264 264 264 263 262 262 261 261 262 262 262 264 265 265 266 267 269 269 270 269 268 267 268 270 273 279 285 289 289 283 277 281 290 294 297 300 299 299 301 305 309 311 311 311 309 306 305 308 310 311 311 312 313 314 314 315 317 320 322
269 269 269 269 269 268 268 267 266 265 263 262 262 262 263 263 264 265 266 267 267 268 268 268 269 268 268 268 266 265 264 263 261 261 263 264 265 265 265 265 266 267 269 270 270 269 268 268 269 271 275 282 287 287 285 279 276 282 290 294 296 297 296 297 299 302 306 310 311 312 311 308 304 304 307 308 309 310 311 312 312 313 316 318 319
271 272 273 273 273 273 273 273 272 272 271 269 268 267 266 265 265 265 264 264 265 265 265 266 267 268 268 267 266 264 263 262 262 264 265 265 265 265 264 265 266 268 270 270 269 268 268 268 269 272 279 285 285 284 281 277 276 281 287 291 294 295 295 296 299 300 303 306 307 308 309 307 302 300 303 306 308 309 309 310 311 312 314 316 317
272 273 273 274 275 275 275 274 274 273 272 271 270 269 268 267 267 266 265 265 265 265 265 265 266 267 267 266 264 262 260 258 257 258 260 261 262 262 263 264 265 266 266 266 266 266 267 268 271 277 283 284 281 279 278 277 277 280 282 285 290 293 293 295 296 298 301 303 304 304 305 305 300 297 299 303 306 307 308 308 309 310 312 314 315
273 275 275 277 278 278 278 277 276 275 274 272 272 271 270 270 269 269 268 268 267 267 267 267 267 267 267 267 265 263 260 254 249 248 249 251 253 255 257 259 260 260 261 262 263 265 267 270 276 281 283 279 276 274 275 277 279 280 280 282 286 290 291 291 292 295 298 301 302 303 304 303 300 296 297 301 304 306 306 306 307 309 310 311 312
275 276 277 279 281 281 282 282 281 281 280 278 277 276 275 274 273 272 272 271 270 269 269 268 267 267 267 267 266 265 263 259 253 251 250 249 250 251 252 254 256 258 260 262 264 267 271 276 280 281 278 274 273 273 274 277 279 280 280 282 285 289 290 290 290 293 296 298 300 301 302 302 299 296 296 298 301 304 305 305 306 307 308 309 310
277 279 281 283 284 285 286 287 287 287 286 285 284 283 282 280 278 276 275 273 271 270 269 268 268 267 267 268 268 268 267 263 258 255 254 253 253 253 254 256 258 259 262 264 267 270 275 279 279 276 273 272 274 275 276 277 279 280 280 283 286 288 289 289 290 292 293 295 297 298 299 300 299 297 295 296 299 302 303 303 304 305 305 306 307
279 281 283 285 286 287 288 289 290 290 289 289 287 286 285 285 282 279 277 274 273 272 271 270 269 268 267 267 267 267 267 265 261 258 255 255 255 256 257 259 260 262 265 268 271 273 276 277 275 274 274 276 278 278 278 279 279 279 280 283 286 287 287 288 290 291 291 292 294 296 297 298 299 298 296 293 296 301 302 301 302 303 303 303 304
280 281 284 285 287 289 289 290 291 290 290 290 288 286 285 285 284 282 279 277 275 273 272 271 270 269 269 269 268 268 267 266 263 260 257 256 257 258 259 260 262 265 269 271 273 274 275 274 274 275 276 277 277 277 277 277 278 279 281 283 285 286 286 287 289 289 289 290 292 294 296 298 298 298 296 292 293 298 300 299 300 301 300 300 301
278 280 283 284 286 288 290 291 292 292 291 290 288 285 282 282 282 281 280 278 277 275 274 273 273 273 272 272 272 272 270 268 266 263 260 258 258 259 261 263 265 268 271 273 273 274 274 273 273 275 276 276 276 276 276 276 277 279 281 282 283 285 285 286 287 287 288 289 290 293 295 297 297 298 296 292 290 294 297 296 297 298 297 297 299
278 280 282 284 286 287 289 290 291 292 292 291 289 285 281 279 280 280 280 280 280 278 277 276 276 275 276 276 275 274 272 271 270 267 264 261 259 260 263 266 269 270 271 272 273 273 273 273 274 275 275 275 274 274 274 274 275 277 279 281 282 283 284 284 285 285 286 288 291 293 295 296 296 296 294 290 288 290 293 293 294 295 295 294 296
279 281 282 284 285 287 288 289 289 289 289 289 288 285 281 279 279 281 282 282 281 280 279 279 279 280 280 280 278 275 272 270 269 268 266 265 263 264 267 270 271 271 271 272 272 272 273 273 274 273 272 271 271 271 271 272 274 276 277 279 280 281 282 282 282 283 285 289 292 293 294 295 295 295 292 289 287 288 289 290 291 293 293 292 294
278 279 280 281 282 284 285 286 286 286 286 286 285 283 281 280 280 281 282 282 282 282 281 281 283 285 285 284 280 276 273 271 270 269 269 268 269 270 272 273 272 271 270 270 271 271 271 271 270 269 269 269 269 270 270 271 273 275 276 278 278 279 280 280 282 284 287 289 291 292 293 294 294 293 290 288 286 286 286 287 289 291 291 291 293
277 278 279 280 281 282 283 283 283 283 283 282 282 281 281 281 281 281 281 282 282 282 282 284 286 287 287 285 282 278 276 275 274 272 271 271 271 272 272 272 272 271 270 270 270 270 270 269 268 268 268 268 269 270 271 272 273 274 275 276 276 278 279 281 283 285 286 288 289 291 292 293 293 291 288 287 286 285 284 284 286 288 289 289 291
278 279 280 281 282 282 282 281 280 280 280 280 280 280 281 281 281 281 282 282 282 282 284 286 287 288 286 285 282 280 279 278 276 275 273 272 271 271 271 272 273 273 273 272 272 272 271 271 270 270 270 271 271 272 272 273 273 274 275 276 278 279 280 281 282 284 285 287 289 290 291 292 291 289 287 286 285 284 283 282 284 286 287 288 289
278 280 281 282 282 281 279 278 277 277 278 278 279 280 280 280 279 279 279 279 280 281 284 285 286 286 285 284 283 281 280 279 278 276 275 274 272 272 272 273 274 275 276 276 276 275 274 274 274 274 274 274 274 274 274 275 275 276 277 278 279 279 280 281 282 283 285 287 288 289 290 289 288 287 286 285 284 283 282 281 282 283 285 286 288
279 280 280 280 279 278 278 277 276 276 276 277 279 280 279 277 277 277 278 279 280 282 283 284 284 284 283 282 281 280 279 278 277 276 276 275 274 273 273 273 274 275 276 277 277 276 276 276 277 277 276 276 276 276 276 277 277 278 278 278 279 280 280 281 282 284 286 287 287 287 287 287 286 286 285 285 283 282 281 280 280 281 283 285 286
279 280 279 279 279 279 280 280 280 279 280 280 280 279 277 276 277 280 281 282 283 284 284 284 284 284 283 281 280 279 278 278 276 276 275 275 274 274 274 274 274 274 274 274 275 276 277 277 278 278 277 277 277 277 278 279 280 280 280 281 282 282 282 283 284 285 286 285 285 285 285 285 285 285 284 283 282 280 279 278 278 279 281 284 285
277 277 277 277 279 280 281 281 281 281 281 281 281 280 279 280 281 282 283 284 284 284 284 284 284 283 283 282 281 280 279 278 277 277 276 276 276 276 276 275 275 275 275 275 276 276 277 278 279 280 279 279 280 280 281 282 283 283 283 284 284 284 284 285 285 284 283 283 283 284 284 283 283 283 282 281 281 280 279 278 277 277 280 282 284
275 275 276 277 279 280 281 281 281 281 281 282 283 284 285 285 285 285 285 284 284 284 284 284 284 283 283 282 281 281 280 279 279 278 278 277 277 277 277 277 277 276 276 276 276 276 277 278 279 279 280 280 281 282 283 284 284 284 284 284 284 284 284 283 282 282 282 282 282 282 281 281 281 281 280 281 281 280 278 277 276 276 278 281 282
275 277 278 279 279 279 279 279 280 282 284 285 286 287 287 286 286 285 285 284 284 284 284 283 283 283 282 282 282 281 281 281 280 280 279 278 278 278 278 278 278 278 278 278 278 278 278 279 279 279 280 280 280 281 282 283 283 284 283 283 283 282 282 281 280 280 281 280 280 280 280 279 279 280 280 281 281 280 278 276 275 275 277 279 280
277 278 279 279 278 278 279 280 282 284 286 286 286 286 286 285 284 284 284 284 284 284 283 283 283 283 283 283 283 283 282 282 282 281 281 281 281 280 280 280 281 281 281 281 281 281 281 281 281 280 280 280 280 281 281 282 282 283 282 282 282 281 280 279 278 278 278 279 278 278 278 278 279 279 280 281 281 280 278 275 274 275 276 278 278
277 277 277 277 277 278 279 281 283 284 284 284 284 284 284 284 285 284 284 284 284 284 284 284 284 284 284 284 283 283 283 283 283 283 283 283 282 283 283 283 284 284 284 284 284 284 284 283 283 282 282 282 282 282 282 282 282 282 282 282 281 279 278 277 276 276 276 277 277 277 277 278 278 279 280 281 281 280 278 276 274 274 276 277 277
274 274 274 274 275 277 278 279 280 281 282 283 283 283 284 284 285 285 285 285 284 284 284 284 283 283 283 283 283 283 283 283 283 283 284 284 284 285 285 285 286 286 286 286 286 286 285 285 285 284 284 284 283 283 283 283 282 282 281 280 279 277 275 275 275 274 274 274 275 276 276 276 277 278 279 280 280 280 278 276 275 275 276 276 276
270 271 271 273 274 276 277 278 279 280 281 281 282 283 283 283 283 283 283 283 283 283 283 282 282 282 282 283 283 283 283 283 284 284 284 285 285 285 286 286 286 286 286 286 286 285 285 285 285 284 284 284 283 283 283 282 282 281 280 278 276 274 274 274 274 273 272 273 273 273 273 274 275 277 278 279 279 278 277 276 274 274 275 275 275
269 270 272 273 275 276 277 278 278 279 280 280 281 281 282 282 282 282 282 282 282 282 282 282 282 282 283 283 283 284 284 284 285 285 285 286 286 286 286 286 285 285 285 285 285 284 284 284 284 283 283 283 283 283 283 282 281 280 278 276 274 273 273 274 274 273 271 271 271 271 271 273 274 275 277 277 278 277 276 275 274 274 274 274 274
Height
3111 3111 3112 3113 3113 3114 3115 3115 3116 3116 3116 3116 3116 3117 3118 3118 3118 3119 3119 3120 3119 3120 3121 3121 3122 3123 3123 3123 3124 3124 3125 3126 3126 3127 3127 3127 3127 3128 3128 3129 3130 3131 3132 3133 3133 3134 3133 3133 3133 3132 3132 3131 3130 3130 3128 3127 3125 3124 3122 3120 3119 3116 3114 3113 3111 3109 3107 3105 3102 3099 3097 3094 3091 3088 3085 3082 3078 3075 3071 3067 3064 3060 3057 3052 3047
3106 3106 3107 3108 3108 3109 3109 3110 3110 3110 3110 3110 3111 3112 3113 3114 3114 3114 3114 3115 3115 3115 3116 3117 3117 3118 3118 3118 3119 3119 3120 3121 3121 3122 3123 3123 3123 3124 3124 3125 3126 3127 3129 3129 3130 3130 3130 3130 3129 3129 3128 3128 3127 3126 3125 3123 3122 3120 3119 3117 3115 3113 3111 3109 3107 3105 3103 3100 3098 3096 3093 3091 3088 3085 3082 3078 3075 3071 3068 3064 3060 3056 3053 3048 3042
3101 3101 3102 3102 3103 3103 3103 3104 3105 3105 3105 3105 3106 3107 3108 3109 3109 3109 3109 3110 3110 3111 3111 3112 3112 3113 3113 3113 3113 3114 3116 3117 3117 3118 3118 3119 3119 3120 3120 3122 3123 3124 3125 3126 3126 3126 3126 3126 3126 3125 3125 3124 3123 3122 3121 3120 3118 3117 3115 3113 3111 3109 3107 3105 3102 3100 3098 3096 3094 3092 3090 3087 3084 3081 3078 3075 3072 3068 3064 3060 3056 3053 3049 3045 3039
3096 3096 3097 3097 3097 3097 3097 3098 3099 3099 3100 3101 3101 3102 3103 3104 3104 3104 3104 3105 3105 3106 3107 3107 3107 3108 3108 3108 3109 3110 3111 3112 3113 3113 3114 3114 3115 3116 3117 3118 3119 3121 3122 3122 3123 3123 3122 3122 3122 3121 3121 3120 3120 3119 3117 3116 3115 3113 3111 3109 3107 3105 3103 3101 3098 3096 3094 3092 3090 3087 3085 3082 3079 3077 3074 3071 3068 3064 3060 3057 3053 3049 3046 3042 3038
3091 3092 3092 3092 3092 3092 3092 3093 3094 3094 3096 3096 3096 3097 3098 3098 3099 3099 3099 3100 3101 3101 3102 3102 3103 3103 3103 3104 3105 3105 3106 3108 3108 3109 3110 3110 3111 3112 3113 3115 3116 3117 3118 3119 3119 3119 3119 3118 3118 3117 3117 3116 3116 3115 3114 3112 3110 3109 3107 3105 3103 3101 3099 3097 3094 3092 3090 3088 3086 3083 3081 3078 3075 3073 3070 3067 3065 3061 3057 3054 3050 3045 3042 3038 3034
3087 3087 3088 3088 3088 3088 3088 3088 3089 3089 3090 3091 3091 3092 3093 3093 3094 3094 3094 3095 3096 3096 3097 3097 3098 3098 3098 3099 3100 3101 3102 3103 3104 3105 3105 3106 3107 3108 3110 3111 3113 3114 3115 3115 3115 3115 3115 3114 3114 3114 3113 3112 3112 3111 3110 3108 3106 3105 3103 3101 3099 3097 3094 3093 3091 3089 3086 3084 3082 3079 3076 3074 3071 3068 3066 3063 3060 3056 3053 3050 3047 3042 3038 3035 3030
3082 3082 3083 3083 3084 3084 3084 3084 3084 3085 3085 3086 3087 3087 3088 3088 3088 3089 3089 3090 3091 3091 3092 3092 3093 3093 3094 3094 3096 3097 3097 3098 3099 3100 3101 3102 3103 3105 3107 3108 3110 3111 3111 3111 3111 3111 3111 3111 3110 3110 3109 3109 3108 3107 3105 3104 3102 3100 3098 3096 3094 3092 3090 3089 3087 3085 3083 3080 3078 3075 3072 3070 3067 3064 3061 3059 3055 3052 3048 3045 3042 3039 3035 3030 3025
3077 3077 3078 3078 3079 3079 3080 3080 3080 3081 3081 3081 3082 3082 3082 3083 3083 3084 3084 3084 3085 3086 3087 3087 3088 3088 3089 3089 3090 3092 3093 3094 3095 3096 3098 3099 3101 3102 3104 3105 3106 3107 3108 3108 3107 3107 3107 3107 3106 3106 3105 3105 3104 3103 3101 3100 3098 3096 3094 3092 3090 3088 3087 3085 3083 3081 3079 3076 3074 3071 3069 3066 3063 3060 3057 3054 3052 3049 3044 3040 3036 3034 3031 3026 3022
3073 3073 3073 3074 3074 3075 3075 3075 3076 3076 3077 3077 3077 3077 3077 3078 3078 3078 3079 3079 3080 3081 3081 3082 3082 3083 3084 3085 3085 3087 3088 3090 3091 3093 3095 3096 3098 3100 3101 3102 3103 3103 3104 3103 3103 3103 3103 3103 3102 3102 3101 3100 3100 3098 3097 3095 3093 3091 3089 3088 3086 3084 3083 3081 3079 3077 3075 3072 3070 3067 3065 3062 3059 3056 3053 3050 3047 3043 3040 3036 3032 3029 3026 3024 3020
3070 3070 3070 3070 3070 3070 3071 3071 3071 3072 3072 3072 3072 3072 3072 3073 3073 3074 3074 3074 3075 3076 3077 3077 3077 3078 3080 3080 3081 3082 3084 3086 3088 3090 3092 3093 3095 3097 3098 3098 3099 3099 3099 3099 3099 3099 3099 3098 3098 3097 3097 3096 3095 3094 3092 3090 3089 3087 3085 3083 3082 3080 3079 3077 3075 3073 3071 3068 3066 3063 3061 3059 3055 3052 3049 3046 3042 3039 3035 3032 3029 3025 3022 3020 3017
3066 3067 3067 3067 3067 3067 3067 3067 3067 3067 3068 3068 3068 3068 3068 3068 3068 3069 3069 3070 3070 3071 3072 3073 3073 3074 3075 3077 3078 3079 3081 3083 3085 3087 3089 3090 3092 3093 3094 3095 3095 3095 3095 3095 3095 3095 3094 3094 3094 3093 3093 3092 3091 3089 3087 3086 3084 3082 3081 3079 3078 3076 3075 3073 3071 3069 3066 3064 3062 3059 3057 3055 3051 3048 3045 3041 3038 3035 3032 3028 3024 3021 3017 3014 3011
3063 3063 3063 3063 3063 3063 3063 3063 3063 3063 3063 3063 3063 3063 3063 3063 3064 3064 3065 3066 3067 3067 3068 3069 3070 3072 3073 3074 3075 3076 3078 3080 3082 3084 3086 3087 3088 3089 3090 3091 3091 3091 3091 3091 3091 3090 3090 3090 3089 3089 3088 3087 3086 3084 3082 3081 3079 3078 3077 3075 3074 3072 3070 3068 3066 3064 3062 3060 3058 3056 3053 3050 3047 3044 3041 3038 3035 3031 3028 3024 3020 3017 3014 3010 3006
3061 3060 3060 3060 3060 3060 3060 3059 3060 3060 3059 3060 3059 3059 3060 3060 3060 3061 3062 3062 3063 3064 3065 3066 3068 3069 3070 3071 3072 3074 3076 3078 3080 3081 3083 3084 3085 3086 3087 3087 3087 3087 3087 3086 3086 3086 3086 3085 3085 3084 3083 3082 3081 3079 3077 3076 3075 3074 3072 3071 3069 3068 3066 3064 3062 3060 3058 3056 3054 3052 3049 3046 3043 3040 3037 3034 3031 3028 3024 3021 3017 3014 3011 3007 3003
3058 3057 3057 3057 3057 3056 3056 3056 3056 3056 3056 3056 3056 3056 3057 3057 3057 3058 3059 3060 3060 3061 3063 3064 3065 3067 3068 3069 3070 3072 3073 3075 3077 3078 3080 3081 3082 3082 3082 3083 3082 3082 3082 3082 3082 3081 3081 3081 3080 3079 3078 3077 3076 3074 3073 3071 3070 3069 3068 3066 3065 3063 3061 3059 3057 3056 3054 3052 3050 3048 3045 3042 3039 3036 3033 3030 3027 3024 3021 3018 3014 3011 3008 3004 3000
3055 3054 3054 3054 3054 3053 3053 3053 3053 3053 3053 3053 3053 3054 3054 3055 3055 3056 3056 3057 3058 3059 3061 3062 3063 3064 3065 3066 3068 3070 3071 3073 3074 3075 3076 3077 3078 3078 3078 3078 3078 3078 3077 3077 3078 3077 3077 3076 3075 3074 3073 3072 3071 3070 3068 3067 3065 3064 3063 3062 3060 3058 3057 3055 3053 3051 3049 3048 3046 3043 3040 3038 3035 3032 3029 3027 3024 3021 3018 3015 3011 3008 3005 3002 2998
3052 3052 3052 3051 3051 3051 3050 3050 3050 3050 3050 3051 3051 3052 3052 3053 3054 3054 3055 3056 3057 3057 3059 3059 3061 3062 3063 3064 3066 3067 3069 3070 3071 3072 3073 3073 3074 3074 3073 3073 3073 3073 3073 3073 3073 3073 3072 3071 3070 3069 3069 3067 3066 3065 3064 3062 3061 3060 3058 3057 3056 3054 3052 3050 3048 3047 3046 3044 3042 3039 3036 3034 3031 3029 3026 3023 3021 3018 3015 3012 3008 3005 3002 2999 2996
3050 3050 3049 3049 3049 3048 3048 3048 3048 3048 3048 3049 3049 3050 3050 3051 3052 3053 3053 3054 3055 3056 3057 3058 3059 3060 3061 3062 3063 3064 3065 3066 3067 3068 3069 3069 3069 3069 3069 3069 3069 3069 3069 3069 3068 3068 3067 3066 3065 3065 3064 3063 3061 3060 3059 3058 3056 3055 3054 3052 3051 3049 3047 3046 3044 3043 3042 3040 3038 3035 3033 3030 3028 3025 3023 3020 3018 3015 3012 3008 3005 3002 2998 2995 2992
3047 3047 3047 3047 3046 3046 3046 3046 3046 3046 3046 3047 3048 3048 3049 3049 3050 3051 3051 3052 3053 3054 3055 3055 3056 3057 3058 3059 3060 3061 3062 3063 3063 3064 3065 3065 3065 3065 3065 3065 3065 3065 3064 3064 3064 3063 3062 3061 3061 3060 3059 3058 3057 3055 3054 3053 3052 3051 3049 3048 3046 3045 3043 3042 3040 3039 3038 3036 3034 3031 3029 3027 3024 3022 3019 3016 3014 3011 3008 3005 3001 2998 2994 2991 2988
3044 3044 3044 3044 3044 3044 3044 3044 3044 3045 3045 3045 3046 3046 3047 3047 3048 3048 3049 3050 3050 3051 3051 3052 3053 3054 3055 3056 3057 3058 3058 3059 3060 3060 3060 3061 3061 3061 3061 3060 3060 3060 3059 3059 3058 3058 3057 3057 3056 3056 3054 3053 3052 3051 3050 3049 3048 3046 3045 3043 3042 3040 3039 3038 3037 3035 3034 3031 3030 3027 3025 3023 3021 3018 3016 3013 3010 3007 3004 3001 2997 2994 2991 2988 2985
3041 3041 3041 3041 3041 3041 3042 3042 3042 3043 3043 3043 3044 3044 3044 3045 3045 3045 3046 3046 3047 3048 3048 3049 3050 3051 3052 3053 3053 3054 3055 3055 3056 3056 3056 3056 3056 3056 3056 3055 3055 3055 3054 3054 3053 3053 3053 3052 3052 3051 3049 3048 3047 3046 3045 3044 3043 3042 3040 3039 3037 3036 3035 3034 3033 3031 3029 3027 3025 3024 3022 3020 3018 3015 3012 3009 3006 3003 3000 2997 2994 2991 2988 2985 2982
3037 3038 3038 3038 3038 3038 3039 3039 3039 3040 3040 3040 3041 3041 3041 3041 3042 3042 3043 3043 3044 3044 3045 3046 3046 3047 3048 3049 3049 3050 3050 3050 3051 3051 3051 3051 3051 3051 3050 3050 3050 3049 3049 3049 3049 3048 3048 3047 3046 3045 3044 3042 3042 3041 3040 3040 3039 3037 3036 3035 3033 3032 3031 3030 3029 3027 3025 3023 3022 3020 3018 3016 3014 3011 3008 3006 3003 3000 2996 2993 2990 2987 2984 2981 2978
3034 3034 3034 3034 3034 3034 3035 3035 3036 3036 3037 3037 3037 3038 3038 3038 3038 3039 3039 3040 3040 3041 3041 3042 3042 3043 3043 3044 3044 3045 3045 3046 3046 3046 3046 3046 3046 3046 3045 3045 3044 3044 3044 3044 3044 3044 3043 3042 3041 3040 3038 3037 3037 3037 3036 3035 3034 3033 3032 3030 3029 3028 3027 3026 3025 3023 3021 3019 3018 3016 3015 3012 3010 3007 3005 3002 2999 2996 2993 2990 2986 2983 2980 2977 2973
3030 3031 3031 3031 3031 3031 3031 3032 3032 3033 3033 3033 3033 3034 3034 3034 3034 3035 3035 3036 3036 3036 3036 3037 3037 3037 3038 3038 3039 3040 3040 3041 3041 3041 3041 3041 3041 3041 3040 3040 3040 3039 3039 3039 3039 3039 3038 3037 3035 3034 3033 3033 3032 3032 3032 3031 3030 3028 3027 3026 3025 3024 3023 3022 3021 3019 3017 3016 3014 3012 3010 3008 3006 3003 3000 2997 2994 2992 2989 2986 2983 2979 2976 2972 2969
3027 3027 3028 3027 3027 3027 3027 3027 3028 3028 3028 3029 3029 3029 3029 3030 3030 3030 3030 3030 3030 3031 3031 3031 3032 3032 3033 3034 3035 3036 3036 3036 3036 3036 3036 3036 3036 3036 3036 3035 3035 3034 3035 3035 3034 3033 3033 3031 3030 3029 3028 3028 3028 3028 3028 3027 3025 3024 3023 3022 3021 3019 3018 3017 3016 3014 3013 3011 3010 3008 3006 3003 3001 2999 2996 2993 2990 2988 2985 2982 2979 2976 2973 2969 2966
3023 3023 3023 3023 3023 3023 3022 3023 3023 3023 3023 3024 3024 3024 3024 3025 3025 3025 3025 3025 3026 3026 3027 3027 3027 3028 3029 3030 3030 3031 3030 3030 3031 3031 3031 3032 3031 3031 3030 3030 3030 3030 3030 3029 3029 3028 3027 3026 3025 3024 3024 3024 3024 3024 3023 3022 3021 3020 3019 3017 3016 3015 3014 3013 3011 3010 3008 3007 3005 3003 3001 2999 2996 2994 2991 2989 2986 2984 2981 2978 2976 2973 2970 2967 2963
3019 3019 3019 3019 3019 3018 3018 3018 3018 3018 3019 3019 3019 3020 3020 3020 3021 3021 3021 3022 3022 3023 3023 3023 3024 3024 3024 3025 3025 3025 3025 3026 3026 3026 3027 3026 3026 3026 3026 3025 3025 3025 3025 3024 3024 3023 3021 3020 3020 3020 3020 3020 3020 3019 3018 3017 3016 3015 3014 3013 3012 3010 3009 3008 3006 3005 3003 3002 3000 2998 2996 2994 2992 2989 2987 2984 2982 2980 2978 2975 2972 2969 2966 2963 2960
3015 3015 3015 3015 3015 3015 3015 3015 3015 3015 3015 3015 3016 3016 3016 3017 3017 3017 3018 3018 3018 3018 3018 3019 3019 3019 3020 3020 3020 3020 3020 3021 3021 3022 3022 3021 3021 3021 3021 3020 3020 3020 3020 3019 3018 3017 3016 3016 3015 3015 3015 3016 3015 3014 3013 3012 3012 3010 3009 3008 3007 3005 3004 3003 3001 3000 2999 2997 2995 2993 2991 2989 2987 2985 2982 2980 2977 2975 2973 2971 2968 2965 2962 2959 2956
3011 3011 3011 3011 3012 3012 3012 3012 3012 3012 3012 3012 3012 3013 3013 3013 3013 3013 3013 3013 3013 3013 3013 3013 3014 3014 3014 3014 3014 3014 3015 3015 3017 3018 3018 3017 3017 3016 3016 3015 3015 3015 3015 3014 3013 3012 3011 3010 3010 3010 3010 3010 3009 3009 3008 3007 3006 3005 3004 3002 3001 3000 2999 2997 2996 2995 2993 2992 2990 2988 2986 2984 2982 2980 2978 2975 2973 2971 2969 2966 2964 2961 2958 2954 2952
3007 3008 3008 3008 3008 3008 3008 3008 3008 3008 3008 3008 3009 3009 3009 3009 3009 3009 3009 3008 3008 3008 3008 3008 3009 3009 3009 3008 3008 3008 3009 3010 3012 3013 3012 3011 3011 3011 3010 3010 3010 3009 3009 3008 3006 3005 3004 3004 3004 3005 3005 3005 3004 3003 3003 3002 3001 3000 2998 2997 2996 2995 2993 2992 2991 2990 2988 2986 2984 2983 2981 2979 2977 2975 2973 2971 2968 2966 2964 2962 2960 2957 2954 2951 2948
3004 3004 3004 3004 3004 3004 3004 3004 3004 3004 3004 3004 3004 3004 3004 3004 3004 3004 3004 3004 3003 3003 3003 3003 3004 3004 3003 3003 3003 3003 3003 3005 3006 3005 3004 3004 3004 3004 3003 3003 3002 3002 3001 3000 2999 2998 2998 2998 2999 3000 3000 2999 2998 2998 2997 2996 2995 2994 2993 2992 2991 2989 2988 2986 2985 2984 2982 2981 2979 2977 2976 2974 2972 2970 2968 2966 2963 2961 2959 2957 2955 2952 2950 2947 2944
2999 2999 3000 3000 3000 3000 3000 3000 3000 3000 3000 3000 3000 3000 2999 2999 2999 2999 2999 2999 2999 2998 2998 2998 2998 2998 2998 2998 2998 2998 2998 2999 2999 2998 2998 2997 2997 2997 2996 2996 2995 2995 2994 2993 2993 2993 2993 2994 2994 2994 2994 2993 2992 2992 2992 2991 2990 2988 2987 2986 2985 2984 2982 2981 2980 2979 2977 2975 2974 2972 2970 2968 2966 2965 2963 2961 2958 2956 2954 2952 2950 2948 2945 2943 2940
2995 2995 2995 2995 2995 2996 2995 2995 2995 2995 2995 2995 2995 2995 2995 2995 2995 2995 2995 2994 2994 2994 2994 2994 2994 2994 2993 2993 2993 2993 2993 2994 2994 2993 2992 2992 2991 2990 2990 2989 2989 2988 2988 2987 2987 2988 2988 2989 2989 2988 2988 2987 2987 2987 2986 2985 2984 2983 2981 2980 2979 2978 2977 2976 2975 2973 2971 2969 2968 2966 2964 2963 2961 2959 2957 2955 2953 2951 2949 2947 2945 2943 2941 2939 2937
2991 2991 2991 2991 2991 2991 2991 2991 2991 2991 2991 2991 2990 2990 2990 2990 2990 2990 2990 2990 2990 2990 2990 2990 2990 2989 2989 2989 2988 2988 2989 2989 2988 2988 2987 2986 2985 2985 2984 2983 2983 2982 2982 2982 2983 2983 2983 2983 2983 2982 2982 2982 2981 2981 2980 2979 2978 2976 2975 2974 2973 2972 2971 2970 2968 2967 2965 2963 2962 2960 2958 2957 2955 2954 2952 2950 2948 2946 2944 2942 2941 2939 2937 2935 2933
2987 2987 2987 2987 2987 2987 2986 2986 2987 2986 2986 2986 2986 2986 2986 2985 2985 2985 2985 2985 2985 2985 2985 2985 2985 2985 2985 2984 2984 2984 2984 2983 2983 2982 2982 2981 2980 2979 2979 2977 2977 2977 2977 2978 2978 2978 2978 2978 2977 2977 2977 2976 2975 2974 2973 2973 2972 2970 2969 2968 2966 2965 2964 2963 2962 2960 2958 2957 2955 2954 2952 2951 2949 2948 2946 2944 2942 2941 2939 2937 2936 2934 2933 2931 2929
2983 2983 2983 2982 2982 2982 2982 2982 2981 2981 2981 2981 2981 2981 2981 2980 2980 2980 2980 2980 2980 2981 2981 2981 2980 2980 2980 2980 2980 2980 2979 2978 2977 2977 2976 2976 2975 2974 2972 2971 2972 2972 2972 2972 2973 2973 2973 2972 2972 2971 2971 2970 2969 2968 2967 2966 2965 2963 2962 2961 2959 2958 2958 2956 2955 2953 2951 2950 2949 2947 2946 2945 2943 2941 2940 2938 2937 2935 2934 2932 2931 2929 2928 2927 2924
2979 2979 2978 2978 2978 2977 2977 2977 2976 2976 2976 2976 2976 2976 2976 2975 2975 2975 2975 2975 2976 2976 2976 2976 2976 2976 2976 2976 2976 2975 2974 2973 2972 2971 2971 2970 2969 2967 2966 2966 2967 2967 2966 2966 2967 2967 2967 2966 2966 2965 2964 2963 2962 2961 2960 2958 2957 2956 2955 2954 2953 2952 2951 2949 2948 2946 2944 2943 2942 2941 2940 2938 2936 2935 2933 2932 2931 2930 2928 2927 2926 2924 2923 2922 2920
2976 2975 2975 2974 2973 2973 2972 2972 2972 2971 2971 2971 2971 2971 2971 2970 2970 2970 2970 2970 2970 2970 2971 2971 2971 2971 2971 2971 2971 2969 2968 2967 2966 2965 2965 2964 2963 2961 2960 2961 2961 2961 2960 2960 2961 2960 2960 2960 2959 2958 2957 2955 2954 2953 2952 2951 2950 2949 2948 2947 2946 2944 2943 2941 2940 2939 2938 2936 2935 2934 2933 2931 2930 2929 2927 2926 2925 2924 2923 2922 2921 2920 2918 2917 2915
2973 2972 2971 2971 2970 2969 2968 2968 2967 2966 2966 2966 2966 2965 2965 2965 2965 2965 2965 2965 2965 2965 2965 2965 2965 2965 2965 2965 2964 2963 2962 2961 2960 2959 2959 2958 2957 2956 2956 2956 2956 2955 2954 2954 2954 2953 2953 2952 2952 2951 2949 2948 2946 2945 2944 2943 2943 2942 2940 2939 2938 2937 2935 2934 2933 2932 2931 2930 2928 2927 2926 2925 2924 2922 2921 2920 2919 2918 2917 2916 2916 2915 2914 2912 2911
2970 2969 2969 2968 2966 2965 2964 2963 2962 2962 2961 2961 2960 2960 2960 2960 2960 2959 2959 2959 2959 2959 2959 2959 2959 2959 2959 2958 2957 2956 2955 2955 2954 2954 2953 2953 2952 2951 2950 2950 2949 2949 2948 2948 2947 2946 2945 2944 2943 2942 2941 2940 2938 2937 2936 2936 2935 2934 2933 2931 2930 2929 2928 2927 2926 2925 2924 2923 2921 2920 2919 2918 2917 2916 2915 2914 2913 2913 2912 2911 2910 2909 2908 2907 2906
2967 2966 2965 2964 2963 2961 2960 2959 2958 2957 2957 2956 2956 2955 2955 2954 2954 2954 2953 2953 2953 2953 2953 2953 2953 2952 2952 2951 2951 2950 2949 2948 2947 2947 2947 2946 2946 2945 2944 2943 2943 2943 2942 2942 2940 2939 2937 2936 2935 2934 2933 2932 2931 2930 2929 2928 2927 2926 2925 2924 2923 2922 2921 2920 2919 2918 2917 2916 2915 2914 2913 2912 2911 2910 2909 2908 2908 2907 2906 2905 2905 2904 2903 2902 2901
2962 2962 2961 2960 2959 2958 2957 2955 2954 2953 2952 2951 2950 2950 2949 2949 2948 2948 2948 2947 2947 2947 2947 2946 2946 2946 2945 2945 2944 2943 2942 2941 2941 2941 2940 2940 2939 2938 2938 2937 2937 2937 2936 2935 2934 2932 2931 2930 2928 2927 2926 2925 2924 2922 2921 2920 2919 2918 2918 2917 2915 2914 2913 2912 2911 2911 2910 2909 2908 2907 2906 2905 2905 2904 2903 2902 2901 2901 2900 2900 2899 2898 2898 2897 2896
2957 2956 2956 2956 2955 2954 2953 2952 2950 2949 2948 2946 2945 2944 2944 2943 2943 2942 2942 2942 2941 2941 2940 2940 2940 2939 2939 2938 2937 2936 2936 2935 2935 2934 2934 2933 2932 2931 2931 2930 2930 2930 2929 2928 2926 2925 2923 2922 2921 2920 2919 2918 2916 2914 2913 2912 2912 2911 2910 2909 2907 2906 2906 2905 2904 2904 2903 2902 2901 2900 2899 2899 2898 2897 2897 2896 2895 2895 2894 2894 2893 2893 2893 2892 2891
2950 2950 2950 2950 2950 2949 2948 2947 2946 2945 2943 2942 2941 2940 2939 2938 2937 2937 2936 2936 2935 2934 2934 2933 2933 2932 2932 2931 2930 2930 2929 2929 2928 2928 2927 2926 2925 2925 2924 2924 2923 2923 2922 2921 2919 2918 2916 2915 2914 2913 2912 2910 2908 2906 2905 2905 2904 2903 2902 2901 2900 2899 2899 2898 2898 2897 2896 2895 2894 2894 2893 2892 2892 2891 2890 2889 2889 2889 2888 2888 2888 2888 2887 2887 2886
2943 2944 2944 2944 2944 2944 2943 2942 2941 2940 2939 2938 2936 2935 2934 2933 2932 2931 2930 2930 2929 2928 2928 2927 2926 2926 2925 2925 2924 2923 2923 2922 2922 2921 2920 2919 2918 2918 2917 2916 2916 2915 2914 2913 2912 2910 2909 2908 2907 2906 2904 2903 2901 2899 2898 2898 2897 2896 2895 2894 2893 2893 2892 2891 2891 2890 2889 2888 2887 2887 2887 2886 2885 2884 2884 2883 2883 2882 2882 2882 2882 2882 2882 2881 2881
2937 2937 2937 2937 2937 2937 2937 2937 2937 2936 2934 2933 2932 2930 2929 2928 2927 2926 2925 2924 2923 2923 2922 2921 2920 2920 2919 2918 2918 2917 2916 2916 2915 2914 2914 2913 2912 2911 2910 2909 2908 2907 2906 2905 2904 2903 2901 2901 2900 2898 2897 2895 2894 2892 2891 2890 2890 2889 2888 2887 2886 2886 2885 2884 2883 2882 2882 2881 2881 2880 2880 2879 2878 2878 2877 2877 2877 2876 2876 2876 2876 2876 2876 2876 2875
2931 2931 2930 2930 2930 2931 2931 2931 2931 2930 2930 2928 2927 2925 2924 2923 2921 2920 2919 2918 2917 2917 2916 2915 2914 2914 2913 2912 2912 2911 2910 2909 2909 2908 2907 2906 2906 2905 2904 2902 2901 2900 2899 2898 2896 2895 2894 2893 2892 2890 2889 2888 2886 2885 2883 2883 2882 2881 2880 2879 2879 2878 2878 2877 2876 2875 2874 2874 2874 2873 2872 2872 2872 2871 2871 2871 2871 2870 2870 2870 2870 2871 2871 2870 2870
2926 2925 2925 2924 2924 2924 2924 2924 2924 2924 2923 2922 2921 2920 2919 2917 2916 2915 2914 2913 2912 2911 2910 2909 2909 2908 2907 2906 2905 2905 2904 2903 2902 2901 2900 2900 2899 2898 2897 2895 2894 2893 2891 2890 2889 2888 2887 2886 2884 2883 2881 2880 2878 2877 2876 2875 2874 2873 2872 2872 2871 2870 2870 2869 2868 2867 2867 2867 2867 2866 2865 2865 2865 2865 2865 2865 2865 2865 2865 2865 2865 2865 2865 2865 2865
2920 2920 2919 2919 2918 2918 2917 2917 2917 2917 2917 2916 2916 2915 2914 2912 2911 2910 2908 2907 2906 2905 2904 2904 2903 2902 2901 2900 2899 2898 2897 2896 2895 2895 2894 2893 2892 2891 2889 2888 2887 2885 2884 2882 2881 2880 2879 2878 2876 2875 2873 2872 2870 2869 2868 2867 2866 2865 2865 2864 2863 2862 2861 2861 2861 2860 2860 2860 2860 2859 2859 2859 2859 2859 2859 2859 2859 2859 2859 2859 2859 2859 2859 2859 2859
2914 2913 2913 2913 2912 2912 2911 2911 2911 2911 2911 2911 2910 2909 2908 2907 2906 2904 2903 2902 2901 2900 2899 2898 2897 2896 2895 2894 2893 2892 2891 2890 2889 2888 2887 2885 2884 2883 2882 2880 2879 2878 2876 2875 2873 2872 2871 2870 2868 2867 2865 2864 2862 2861 2860 2859 2859 2858 2857 2856 2855 2854 2853 2853 2853 2853 2853 2853 2853 2852 2852 2852 2852 2852 2852 2853 2853 2853 2853 2854 2854 2854 2854 2854 2854
2907 2907 2907 2907 2906 2906 2906 2906 2905 2905 2905 2905 2904 2904 2903 2902 2901 2899 2898 2897 2896 2894 2893 2892 2891 2890 2889 2887 2886 2885 2884 2883 2882 2881 2879 2878 2877 2875 2874 2872 2871 2870 2868 2867 2866 2864 2863 2862 2860 2859 2857 2856 2854 2853 2852 2851 2851 2850 2849 2848 2847 2846 2845 2845 2845 2845 2846 2846 2846 2845 2845 2845 2846 2846 2846 2846 2847 2847 2847 2848 2848 2848 2848 2848 2848
2901 2901 2901 2901 2901 2900 2900 2900 2900 2900 2899 2899 2898 2898 2897 2896 2895 2894 2892 2891 2890 2889 2887 2886 2885 2883 2882 2881 2879 2878 2877 2875 2874 2873 2871 2870 2869 2867 2866 2864 2863 2861 2860 2859 2858 2856 2855 2854 2852 2851 2849 2848 2846 2845 2844 2844 2843 2842 2841 2840 2839 2838 2838 2838 2838 2839 2839 2839 2839 2839 2839 2839 2839 2840 2840 2840 2841 2841 2842 2842 2842 2842 2843 2843 2843